E22ZMG-3 Weather Reports


time (UTC)temp
C
wind
direction
speed
KPH
gust
KPH
rain 1hr
cm
rain 24hr
cm
rain mn
cm
humidity
%
barometer
mb
20260504081552 42 0 0.0 0.0 0.00 0.00 0.00 24 973.0
20260504080528 42 0 0.0 0.0 0.00 0.00 0.00 24 973.0
20260504070300 42 0 0.0 0.0 0.00 0.00 0.00 22 974.0
20260504050331 41 0 0.0 0.0 0.00 0.00 0.00 27 976.0
20260504050322 41 0 0.0 0.0 0.00 0.00 0.00 27 976.0
20260504050319 41 0 0.0 0.0 0.00 0.00 0.00 27 976.0
20260504045253 41 0 0.0 0.0 0.00 0.00 0.00 28 977.0
20260504044229 41 0 0.0 0.0 0.00 0.00 0.00 29 977.0
20260504043204 38 0 0.0 0.0 0.00 0.00 0.00 32 977.0
20260504042140 39 0 0.0 0.0 0.00 0.00 0.00 31 977.0
20260504041115 38 0 0.0 0.0 0.00 0.00 0.00 32 977.0
20260504040051 38 0 0.0 0.0 0.00 0.00 0.00 31 977.0
20260504035030 37 0 0.0 0.0 0.00 0.00 0.00 34 977.0
20260504035025 37 0 0.0 0.0 0.00 0.00 0.00 34 977.0
20260504034000 38 0 0.0 0.0 0.00 0.00 0.00 33 977.0
20260504032935 37 0 0.0 0.0 0.00 0.00 0.00 34 977.0
20260504031911 37 0 0.0 0.0 0.00 0.00 0.00 36 978.0
20260504030847 37 0 0.0 0.0 0.00 0.00 0.00 36 978.0
20260504025822 37 0 0.0 0.0 0.00 0.00 0.00 36 978.0
20260504024757 36 0 0.0 0.0 0.00 0.00 0.00 37 978.0
20260504023733 37 0 0.0 0.0 0.00 0.00 0.00 35 978.0
20260504022709 36 0 0.0 0.0 0.00 0.00 0.00 38 978.0
20260504021648 36 0 0.0 0.0 0.00 0.00 0.00
20260504021644 36 0 0.0 0.0 0.00 0.00 0.00 39 978.0
20260504020619 36 0 0.0 0.0 0.00 0.00 0.00 39 978.0
20260504015554 36 0 0.0 0.0 0.00 0.00 0.00 39 978.0
20260504014533 35 0 0.0 0.0 0.00 0.00 0.00 40 978.0
20260504014530 35 0 0.0 0.0 0.00 0.00 0.00 40 978.0
20260504013505 35 0 0.0 0.0 0.00 0.00 0.00 41 978.0
20260504012441 34 0 0.0 0.0 0.00 0.00 0.00 43 978.0
20260504011412 34 0 0.0 0.0 0.00 0.00 0.00 44 978.0
20260504010955 33 0 0.0 0.0 0.00 0.00 0.00 45 978.0
20260504005930 33 0 0.0 0.0 0.00 0.00 0.00 44 978.0
20260504004904 32 0 0.0 0.0 0.00 0.00 0.00 47 977.0
20260504003840 32 0 0.0 0.0 0.00 0.00 0.00 49 977.0
20260504002815 32 0 0.0 0.0 0.00 0.00 0.00 50 977.0
20260504001750 31 0 0.0 0.0 0.00 0.00 0.00 53 977.0
20260504000725 31 0 0.0 0.0 0.00 0.00 0.00 59 977.0
20260503235700 30 0 0.0 0.0 0.00 0.00 0.00 59 977.0
20260503234633 31 0 0.0 0.0 0.00 0.00 0.00 57 977.0
20260503233609 30 0 0.0 0.0 0.00 0.00 0.00 60 977.0
20260503232544 30 0 0.0 0.0 0.00 0.00 0.00 60 977.0
20260503231519 30 0 0.0 0.0 0.00 0.00 0.00 59 977.0
20260503230454 30 0 0.0 0.0 0.00 0.00 0.00 59 977.0
20260503225429 30 0 0.0 0.0 0.00 0.00 0.00 58 976.0
20260503224406 -17 0 0.0 0.0 0.00 0.00 0.00 55 976.0
20260503223340 31 0 0.0 0.0 0.00 0.00 0.00 56 976.0
20260503222315 31 0 0.0 0.0 0.00 0.00 0.00 57 976.0
20260503221251 31 0 0.0 0.0 0.00 0.00 0.00 56 976.0
20260503220223 31 0 0.0 0.0 0.00 0.00 0.00 55 976.0
20260503215159 31 0 0.0 0.0 0.00 0.00 0.00 56 976.0
20260503214133 31 0 0.0 0.0 0.00 0.00 0.00 57 976.0
20260503213108 30 0 0.0 0.0 0.00 0.00 0.00 60 975.0
20260503212043 31 0 0.0 0.0 0.00 0.00 0.00 55 975.0
20260503211018 30 0 0.0 0.0 0.00 0.00 0.00 57 975.0
20260503205953 31 0 0.0 0.0 0.00 0.00 0.00 55 975.0
20260503204928 31 0 0.0 0.0 0.00 0.00 0.00 55 975.0
20260503203903 31 0 0.0 0.0 0.00 0.00 0.00 55 975.0
20260503202838 31 0 0.0 0.0 0.00 0.00 0.00 56 975.0
20260503201813 30 0 0.0 0.0 0.00 0.00 0.00 57 975.0
20260503201322 30 0 0.0 0.0 0.00 0.00 0.00 59 975.0
20260503200257 31 0 0.0 0.0 0.00 0.00 0.00 55 975.0
20260503195233 31 0 0.0 0.0 0.00 0.00 0.00 53 975.0
20260503194207 31 0 0.0 0.0 0.00 0.00 0.00 55 975.0
20260503193142 31 0 0.0 0.0 0.00 0.00 0.00 55 975.0
20260503192116 31 0 0.0 0.0 0.00 0.00 0.00 53 975.0
20260503191051 31 0 0.0 0.0 0.00 0.00 0.00 55 975.0
20260503190026 31 0 0.0 0.0 0.00 0.00 0.00 55 976.0
20260503185325 32 0 0.0 0.0 0.00 0.00 0.00 52 975.0
20260503184303 31 0 0.0 0.0 0.00 0.00 0.00 54 975.0
20260503184301 31 0 0.0 0.0 0.00 0.00 0.00 54 975.0
20260503183236 32 0 0.0 0.0 0.00 0.00 0.00 53 976.0
20260503182210 31 0 0.0 0.0 0.00 0.00 0.00 55 976.0
20260503181145 32 0 0.0 0.0 0.00 0.00 0.00 54 976.0
20260503180121 31 0 0.0 0.0 0.00 0.00 0.00 53 976.0
20260503175054 32 0 0.0 0.0 0.00 0.00 0.00 52 976.0
20260503174029 31 0 0.0 0.0 0.00 0.00 0.00 54 976.0
20260503173010 32 0 0.0 0.0 0.00 0.00 0.00 51 976.0
20260503173003 32 0 0.0 0.0 0.00 0.00 0.00 51 976.0
20260503171940 32 0 0.0 0.0 0.00 0.00 0.00 51 976.0
20260503171938 32 0 0.0 0.0 0.00 0.00 0.00 51 976.0
20260503170912 32 0 0.0 0.0 0.00 0.00 0.00 52 976.0
20260503150414 35 0 0.0 0.0 0.00 0.00 0.00 46 975.0
20260503140144 34 0 0.0 0.0 0.00 0.00 0.00 45 974.0
20260503130941 35 0 0.0 0.0 0.00 0.00 0.00 40 973.0
20260503110444 38 0 0.0 0.0 0.00 0.00 0.00 30 971.0
20260503110442 38 0 0.0 0.0 0.00 0.00 0.00 30 971.0
20260503100213 41 0 0.0 0.0 0.00 0.00 0.00 26 971.0